{"data":{"norad_id":50850,"intl_designator":"2022-001AZ","name":"STARLINK-3312","alt_names":[],"object_type":"PAYLOAD","status":"ACTIVE","operator":null,"country":"US","launch_date":"2022-01-06","launch_site_code":"AFETR","launch_vehicle":null,"mission":null,"orbit_class":"UNKNOWN","rcs_meters":null,"size_class":null,"mass_kg":null,"dimensions":null,"purposes":["comms"],"wikipedia_slug":null,"has_3d_model":false,"image_url":null,"decayed_at":null,"tle_current":{"epoch":"2026-05-24T10:49:26.812128Z","epoch_age_seconds":131435,"freshness":"FRESH","line1":"1 50850U 22001AZ  26144.45100477  .00000385  00000+0  42286-4 0  9999","line2":"2 50850  53.2135 159.0156 0001370  72.3670 287.7472 15.08837298242806","mean_motion":15.08837298,"eccentricity":0.000137,"inclination_deg":53.2135,"raan_deg":159.0156,"arg_perigee_deg":72.367,"mean_anomaly_deg":287.7472,"bstar":4.2286e-5,"rev_number":24280,"period_min":95.437725585705,"perigee_km":538.80389716471,"apogee_km":540.69939865424,"semimajor_km":6917.8886479095,"source":"CELESTRAK","updated_at":"2026-05-25T13:38:16.883762Z"}}}